Location: Gro� Glienicke
(52.4675°N, 13.1079°E)
Time: 18:30:25
(UTC+00:00)

Cosmos 2154 Rocket - Pass Details

Date: 06 July 2020
Orbit: 967 x 995 km, 82.9° (Epoch: 11 August)

Event Time Altitude Azimuth Distance (km) Brightness Sun altitude
Exits shadow 21:49:48 13° 188° (S) 2,463 5.6 -12.8°
Maximum altitude 21:55:22 89° 99° (E) 977 4.0 -13.1°
Drops below altitude 10° 22:01:38 10° 11° (N) 2,731 7.4 -13.4°
Sets 22:04:09 0° 11° (N) 3,685 8.2 -13.5°
